User: anonymous   Login
Location: Harmony
(28.2000°N, 81.1500°W)
Time: 19:36:46
(UTC-04:00)
Language:

BREEZE-M DEB (TANK) - Orbit

View from above orbital plane
View from above orbital plane
View from above satellite
View from above satellite

Ground track
Ground track

The orbit data is extracted from the following two-line orbital elements,

1 28188U 04008B   18146.80468173 +.00000432 +00000-0 +10807-3 0  9994
2 28188 049.5101 065.1569 5113600 222.4130 084.1955 05.43006001271372
Epoch (UTC): 26 May 2018 19:18:44
Eccentricity: 0.5113600
inclination: 49.5101°
perigee height: 303 km
apogee height: 14286 km
right ascension of ascending node: 65.1569°
argument of perigee: 222.4130°
revolutions per day: 5.43006001
mean anomaly at epoch: 84.1955°
orbit number at epoch: 27137

The dashed part of the orbit path shows where the satellite is in the earth's shadow,  

DLR